QPF
0.00 0.00 0.00 0.00 0.00 0.00 0.00 0.00 0.00 0.00 0.00 0.00 0.00 0.00 0.00 0.00 0.00 0.00 0.00 0.00 0.00 0.00 0.00 0.00 0.00 0.00 0.00 0.00 0.00 0.00 0.00 0.00 0.00 0.00 0.00 0.00 0.00 0.00 0.00 0.00 0.00 0.00 0.00
0.00 0.00 0.00 0.00 0.00 0.00 0.00 0.00 0.00 0.00 0.00 0.00 0.00 0.00 0.00 0.00 0.00 0.00 0.00 0.00 0.00 0.00 0.00 0.00 0.00 0.00 0.00 0.00 0.00 0.00 0.00 0.00 0.00 0.00 0.00 0.00 0.00 0.00 0.00 0.00 0.00 0.00 0.00
0.00 0.00 0.00 0.00 0.00 0.00 0.00 0.00 0.00 0.00 0.00 0.00 0.00 0.00 0.00 0.00 0.00 0.00 0.00 0.00 0.00 0.00 0.00 0.00 0.00 0.00 0.00 0.00 0.00 0.00 0.00 0.00 0.00 0.00 0.00 0.00 0.00 0.00 0.00 0.00 0.00 0.00 0.00
0.00 0.00 0.00 0.00 0.00 0.00 0.00 0.00 0.00 0.00 0.00 0.00 0.00 0.00 0.00 0.00 0.00 0.00 0.00 0.00 0.00 0.00 0.00 0.00 0.00 0.00 0.00 0.00 0.00 0.00 0.00 0.00 0.00 0.00 0.00 0.00 0.00 0.00 0.00 0.00 0.00 0.00 0.00
0.00 0.00 0.00 0.00 0.00 0.00 0.00 0.00 0.00 0.00 0.00 0.00 0.00 0.00 0.00 0.00 0.00 0.00 0.00 0.00 0.00 0.00 0.00 0.00 0.00 0.00 0.00 0.00 0.00 0.00 0.00 0.00 0.00 0.00 0.00 0.00 0.00 0.00 0.00 0.00 0.00 0.00 0.00
0.00 0.00 0.00 0.00 0.00 0.00 0.00 0.00 0.00 0.00 0.00 0.00 0.00 0.00 0.00 0.00 0.00 0.00 0.00 0.00 0.00 0.00 0.00 0.00 0.00 0.00 0.00 0.00 0.00 0.00 0.00 0.00 0.00 0.00 0.00 0.00 0.00 0.00 0.00 0.00 0.00 0.00 0.00
0.00 0.00 0.00 0.00 0.00 0.00 0.00 0.00 0.00 0.00 0.00 0.00 0.00 0.00 0.00 0.00 0.00 0.00 0.00 0.00 0.00 0.00 0.00 0.00 0.00 0.00 0.00 0.00 0.00 0.00 0.00 0.00 0.00 0.00 0.00 0.00 0.00 0.00 0.00 0.00 0.00 0.00 0.00
0.00 0.00 0.00 0.00 0.00 0.00 0.00 0.00 0.00 0.00 0.00 0.00 0.00 0.00 0.00 0.00 0.00 0.00 0.00 0.00 0.00 0.00 0.00 0.00 0.00 0.00 0.00 0.00 0.00 0.00 0.00 0.00 0.00 0.00 0.00 0.00 0.00 0.00 0.00 0.00 0.00 0.00 0.00
0.00 0.00 0.00 0.00 0.00 0.00 0.00 0.00 0.00 0.00 0.00 0.00 0.00 0.00 0.00 0.00 0.00 0.00 0.00 0.00 0.00 0.00 0.00 0.00 0.00 0.00 0.00 0.00 0.00 0.00 0.00 0.00 0.00 0.00 0.00 0.00 0.00 0.00 0.00 0.00 0.00 0.00 0.00
0.00 0.00 0.00 0.00 0.00 0.00 0.00 0.00 0.00 0.00 0.00 0.00 0.00 0.00 0.00 0.00 0.00 0.00 0.00 0.00 0.00 0.00 0.00 0.00 0.00 0.00 0.00 0.00 0.00 0.00 0.00 0.00 0.00 0.00 0.00 0.00 0.00 0.00 0.00 0.00 0.00 0.00 0.00
0.00 0.00 0.00 0.00 0.00 0.00 0.00 0.00 0.00 0.00 0.00 0.00 0.00 0.00 0.00 0.00 0.00 0.00 0.00 0.00 0.00 0.00 0.00 0.00 0.00 0.00 0.00 0.00 0.00 0.00 0.00 0.00 0.00 0.00 0.00 0.00 0.00 0.00 0.00 0.00 0.00 0.00 0.00
0.00 0.00 0.00 0.00 0.00 0.00 0.00 0.00 0.00 0.00 0.00 0.00 0.00 0.00 0.00 0.00 0.00 0.00 0.00 0.00 0.00 0.00 0.00 0.00 0.00 0.00 0.00 0.00 0.00 0.00 0.00 0.00 0.00 0.00 0.00 0.00 0.00 0.00 0.00 0.00 0.00 0.00 0.00
0.00 0.00 0.00 0.00 0.00 0.00 0.00 0.00 0.00 0.00 0.00 0.00 0.00 0.00 0.00 0.00 0.00 0.00 0.00 0.00 0.00 0.00 0.00 0.00 0.00 0.00 0.00 0.00 0.00 0.00 0.00 0.00 0.00 0.00 0.00 0.00 0.00 0.00 0.00 0.00 0.00 0.00 0.00
0.00 0.00 0.00 0.00 0.00 0.00 0.00 0.00 0.00 0.00 0.00 0.00 0.00 0.00 0.00 0.00 0.00 0.00 0.00 0.00 0.00 0.00 0.00 0.00 0.00 0.00 0.00 0.00 0.00 0.00 0.00 0.00 0.00 0.00 0.00 0.00 0.00 0.00 0.00 0.00 0.00 0.00 0.00
0.00 0.00 0.00 0.00 0.00 0.00 0.00 0.00 0.00 0.00 0.00 0.00 0.00 0.00 0.00 0.00 0.00 0.00 0.00 0.00 0.00 0.00 0.00 0.00 0.00 0.00 0.00 0.00 0.00 0.00 0.00 0.00 0.00 0.00 0.00 0.00 0.00 0.00 0.00 0.00 0.00 0.00 0.00
0.00 0.00 0.00 0.00 0.00 0.00 0.00 0.00 0.00 0.00 0.00 0.00 0.00 0.00 0.00 0.00 0.00 0.00 0.00 0.00 0.00 0.00 0.00 0.00 0.00 0.00 0.00 0.00 0.00 0.00 0.00 0.00 0.00 0.00 0.00 0.00 0.00 0.00 0.00 0.00 0.00 0.00 0.00
0.00 0.00 0.00 0.00 0.00 0.00 0.00 0.00 0.00 0.00 0.00 0.00 0.00 0.00 0.00 0.00 0.00 0.00 0.00 0.00 0.00 0.00 0.00 0.00 0.00 0.00 0.00 0.00 0.00 0.00 0.00 0.00 0.00 0.00 0.00 0.00 0.00 0.00 0.00 0.00 0.00 0.00 0.00
0.00 0.00 0.00 0.00 0.00 0.00 0.00 0.00 0.00 0.00 0.00 0.00 0.00 0.00 0.00 0.00 0.00 0.00 0.00 0.00 0.00 0.00 0.00 0.00 0.00 0.00 0.00 0.00 0.00 0.00 0.00 0.00 0.00 0.00 0.00 0.00 0.00 0.00 0.00 0.00 0.00 0.00 0.00
0.00 0.00 0.00 0.00 0.00 0.00 0.00 0.00 0.00 0.00 0.00 0.00 0.00 0.00 0.00 0.00 0.00 0.00 0.00 0.00 0.00 0.00 0.00 0.00 0.00 0.00 0.00 0.00 0.00 0.00 0.00 0.00 0.00 0.00 0.00 0.00 0.00 0.00 0.00 0.00 0.00 0.00 0.00
0.00 0.00 0.00 0.00 0.00 0.00 0.00 0.00 0.00 0.00 0.00 0.00 0.00 0.00 0.00 0.00 0.00 0.00 0.00 0.00 0.00 0.00 0.00 0.00 0.00 0.00 0.00 0.00 0.00 0.00 0.00 0.00 0.00 0.00 0.00 0.00 0.00 0.00 0.00 0.00 0.00 0.00 0.00
0.00 0.00 0.00 0.00 0.00 0.00 0.00 0.00 0.00 0.00 0.00 0.00 0.00 0.00 0.00 0.00 0.00 0.00 0.00 0.00 0.00 0.00 0.00 0.00 0.00 0.00 0.00 0.00 0.00 0.00 0.00 0.00 0.00 0.00 0.00 0.00 0.00 0.00 0.00 0.00 0.00 0.00 0.00
0.00 0.00 0.00 0.00 0.00 0.00 0.00 0.00 0.00 0.00 0.00 0.00 0.00 0.00 0.00 0.00 0.00 0.00 0.00 0.00 0.00 0.00 0.00 0.00 0.00 0.00 0.00 0.00 0.00 0.00 0.00 0.00 0.00 0.00 0.00 0.00 0.00 0.00 0.00 0.00 0.00 0.00 0.00
0.00 0.00 0.00 0.00 0.00 0.00 0.00 0.00 0.00 0.00 0.00 0.00 0.00 0.00 0.00 0.00 0.00 0.00 0.00 0.00 0.00 0.00 0.00 0.00 0.00 0.00 0.00 0.00 0.00 0.00 0.00 0.00 0.00 0.00 0.00 0.00 0.00 0.00 0.00 0.00 0.00 0.00 0.00
0.00 0.00 0.00 0.00 0.00 0.00 0.00 0.00 0.00 0.00 0.00 0.00 0.00 0.00 0.00 0.00 0.00 0.00 0.00 0.00 0.00 0.00 0.00 0.00 0.00 0.00 0.00 0.00 0.00 0.00 0.00 0.00 0.00 0.00 0.00 0.00 0.00 0.00 0.00 0.00 0.00 0.00 0.00
0.00 0.00 0.00 0.00 0.00 0.00 0.00 0.00 0.00 0.00 0.00 0.00 0.00 0.00 0.00 0.00 0.00 0.00 0.00 0.00 0.00 0.00 0.00 0.00 0.00 0.00 0.00 0.00 0.00 0.00 0.00 0.00 0.00 0.00 0.00 0.00 0.00 0.00 0.00 0.00 0.00 0.00 0.00
0.00 0.00 0.00 0.00 0.00 0.00 0.00 0.00 0.00 0.00 0.00 0.00 0.00 0.00 0.00 0.00 0.00 0.00 0.00 0.00 0.00 0.00 0.00 0.00 0.00 0.00 0.00 0.00 0.00 0.00 0.00 0.00 0.00 0.00 0.00 0.00 0.00 0.00 0.00 0.00 0.00 0.00 0.00
MSLP
1025.66 1025.93 1026.15 1026.51 1026.73 1026.74 1026.70 1026.95 1026.83 1026.55 1026.15 1025.75 1025.46 1025.30 1025.16 1024.86 1024.53 1024.14 1023.69 1023.57 1023.00 1022.36 1021.31 1020.21 1019.54 1018.94 1018.19 1017.34 1016.49 1015.74 1014.68 1013.77 1012.72 1013.09 1012.79 1012.69 1012.20 1011.95 1011.75 1011.42 1011.17 1010.72 1010.31
1025.57 1025.82 1026.24 1026.58 1026.89 1027.07 1027.26 1027.47 1027.33 1027.11 1026.62 1026.39 1026.02 1025.83 1025.78 1025.58 1025.42 1024.93 1024.56 1024.51 1024.17 1023.25 1022.39 1021.18 1020.42 1019.63 1019.00 1018.45 1017.55 1016.76 1015.85 1014.87 1014.17 1014.18 1014.27 1013.92 1013.68 1013.45 1013.15 1012.72 1012.24 1011.91 1011.25
1025.39 1025.74 1026.21 1026.52 1026.94 1027.35 1027.75 1027.96 1027.75 1027.52 1027.36 1027.15 1026.82 1026.69 1026.61 1026.25 1025.90 1025.61 1025.49 1025.20 1024.57 1023.84 1023.09 1022.25 1021.47 1020.67 1020.07 1019.63 1018.97 1018.11 1017.27 1016.56 1016.01 1015.69 1015.79 1015.42 1014.89 1014.59 1014.05 1013.87 1013.58 1013.29 1012.77
1025.25 1025.67 1026.22 1026.52 1026.95 1027.44 1027.86 1028.08 1028.00 1027.63 1027.63 1027.54 1027.33 1027.34 1027.16 1026.83 1026.40 1026.09 1025.82 1025.39 1024.80 1024.36 1023.74 1023.00 1022.36 1021.56 1021.01 1020.54 1019.98 1019.32 1018.78 1018.08 1017.55 1017.19 1016.87 1016.56 1016.30 1016.08 1015.45 1015.07 1014.64 1014.68 1014.23
1025.06 1025.51 1026.07 1026.63 1027.13 1027.59 1027.93 1028.03 1027.89 1027.76 1027.74 1027.81 1027.55 1027.25 1026.94 1026.71 1026.18 1026.21 1026.05 1025.70 1025.23 1024.85 1024.40 1023.82 1023.21 1022.35 1021.71 1021.36 1020.83 1020.53 1019.95 1019.53 1019.11 1018.82 1018.47 1018.14 1017.68 1017.40 1017.02 1016.74 1016.17 1015.79 1015.54
1024.90 1025.49 1026.05 1026.76 1027.37 1027.78 1028.04 1028.16 1028.18 1028.18 1028.11 1027.94 1027.77 1027.57 1027.22 1026.68 1026.50 1026.27 1026.24 1026.05 1025.74 1025.28 1024.97 1024.60 1024.00 1023.65 1023.17 1022.47 1021.96 1021.50 1021.07 1020.84 1020.60 1020.38 1020.20 1019.79 1019.25 1019.04 1018.15 1017.57 1017.38 1016.91 1016.78
1024.81 1025.43 1026.15 1026.84 1027.40 1027.83 1028.08 1028.28 1028.42 1028.47 1028.43 1028.27 1028.09 1027.85 1027.49 1027.20 1026.98 1026.79 1026.55 1026.36 1026.22 1025.90 1025.53 1025.24 1024.65 1024.34 1024.06 1023.69 1023.27 1022.91 1022.27 1021.83 1021.77 1021.76 1021.31 1021.06 1020.49 1020.09 1019.20 1018.51 1018.21 1018.09 1018.79
1024.83 1025.47 1026.18 1026.87 1027.43 1027.90 1028.26 1028.55 1028.74 1028.76 1028.72 1028.60 1028.45 1028.21 1027.88 1027.61 1027.43 1027.22 1026.99 1026.81 1026.67 1026.48 1026.22 1025.83 1025.56 1025.20 1024.71 1024.43 1024.12 1023.89 1023.49 1023.21 1022.82 1022.65 1022.53 1022.14 1021.51 1020.99 1020.09 1019.30 1018.92 1018.51 1019.06
1024.99 1025.58 1026.23 1026.78 1027.34 1027.89 1028.31 1028.64 1028.93 1029.09 1029.10 1029.07 1029.07 1028.89 1028.54 1028.06 1027.80 1027.69 1027.40 1027.35 1027.25 1027.07 1026.66 1026.18 1026.17 1025.91 1025.64 1025.24 1024.99 1024.72 1024.48 1024.46 1024.27 1023.80 1023.45 1023.06 1022.42 1021.83 1021.08 1020.11 1019.60 1019.34 1020.20
1025.06 1025.62 1026.22 1026.76 1027.32 1027.95 1028.33 1028.69 1029.08 1029.33 1029.43 1029.57 1029.67 1029.60 1029.34 1028.85 1028.11 1028.17 1028.21 1028.09 1028.11 1027.88 1027.47 1027.15 1026.44 1026.46 1026.23 1026.01 1025.87 1025.75 1025.58 1025.83 1025.43 1024.90 1024.51 1024.01 1023.59 1023.08 1022.46 1021.97 1021.90 1021.52 1021.57
1025.15 1025.80 1026.40 1026.88 1027.35 1027.85 1028.34 1028.71 1029.09 1029.51 1030.00 1030.27 1030.37 1030.29 1030.15 1029.57 1029.14 1028.36 1028.46 1028.72 1028.89 1028.65 1028.32 1027.96 1027.52 1026.87 1026.86 1026.67 1026.58 1026.49 1026.61 1026.97 1026.63 1026.21 1025.81 1025.35 1024.81 1024.44 1024.02 1023.75 1023.56 1023.36 1023.24
1025.37 1025.99 1026.54 1027.03 1027.48 1027.99 1028.38 1028.77 1029.18 1029.77 1030.39 1030.82 1030.87 1030.78 1030.69 1030.62 1029.30 1028.83 1028.59 1028.56 1028.81 1029.09 1028.93 1028.44 1028.33 1027.34 1027.30 1027.33 1027.40 1027.14 1027.20 1027.71 1027.59 1027.17 1026.82 1026.59 1026.15 1025.76 1025.31 1024.89 1024.60 1024.35 1024.14
1025.45 1026.04 1026.63 1027.14 1027.58 1027.99 1028.40 1028.85 1029.33 1029.74 1030.24 1030.80 1031.05 1031.15 1031.03 1030.61 1030.41 1029.58 1029.07 1028.74 1028.83 1029.45 1029.32 1028.51 1028.15 1028.18 1028.31 1028.59 1028.01 1028.13 1028.59 1028.50 1028.22 1028.15 1028.07 1027.88 1027.45 1027.07 1026.30 1025.63 1025.18 1024.95 1024.62
1025.41 1026.07 1026.69 1027.22 1027.71 1028.07 1028.41 1028.74 1029.15 1029.63 1030.02 1030.39 1030.86 1031.21 1031.30 1030.94 1030.55 1030.28 1030.03 1029.96 1029.47 1029.86 1030.15 1030.15 1029.80 1029.52 1029.70 1029.77 1029.55 1029.24 1029.28 1029.19 1029.13 1029.24 1028.99 1028.27 1028.13 1027.37 1026.98 1026.69 1026.18 1025.64 1025.40
1025.20 1025.88 1026.58 1027.19 1027.70 1028.24 1028.65 1028.97 1029.18 1029.60 1029.61 1029.95 1030.69 1031.04 1031.40 1031.20 1030.53 1030.09 1029.62 1030.14 1030.38 1030.63 1030.69 1030.68 1030.72 1030.74 1030.75 1030.65 1030.41 1030.19 1029.91 1029.57 1029.58 1029.31 1029.18 1028.96 1028.51 1027.99 1027.58 1027.21 1026.79 1026.51 1026.33
1025.03 1025.69 1026.34 1027.03 1027.67 1028.18 1028.56 1028.94 1028.86 1029.28 1029.08 1029.37 1029.79 1030.54 1031.27 1030.49 1029.82 1029.52 1029.41 1029.45 1029.81 1030.09 1031.11 1032.11 1032.34 1032.20 1031.93 1031.78 1031.59 1031.19 1030.80 1030.53 1030.24 1029.89 1029.68 1029.47 1029.12 1028.62 1028.16 1027.61 1027.18 1027.11 1026.78
1024.52 1025.29 1026.10 1026.81 1027.44 1027.98 1028.47 1028.92 1029.25 1029.08 1029.06 1029.20 1029.45 1029.62 1029.81 1029.89 1029.64 1029.26 1029.35 1029.70 1030.19 1030.71 1031.72 1032.42 1032.67 1032.65 1032.38 1031.94 1031.88 1031.84 1031.82 1031.31 1030.81 1030.94 1030.86 1030.67 1030.19 1029.35 1028.83 1028.45 1028.10 1027.78 1027.26
1024.20 1024.75 1025.48 1026.26 1026.95 1027.59 1028.11 1028.63 1029.11 1029.33 1029.53 1029.76 1029.57 1029.37 1029.30 1029.45 1029.54 1029.43 1029.59 1030.32 1030.92 1031.27 1031.87 1032.56 1032.92 1032.65 1032.47 1032.53 1032.57 1032.59 1032.47 1032.09 1031.83 1031.92 1031.87 1031.72 1031.34 1030.74 1030.15 1029.60 1029.11 1028.69 1028.12
1024.01 1024.80 1025.30 1025.90 1026.49 1027.09 1027.84 1028.47 1028.91 1029.29 1029.55 1029.79 1029.79 1029.71 1029.56 1029.40 1029.56 1029.87 1030.21 1030.99 1031.85 1032.30 1032.36 1032.67 1032.87 1032.97 1033.04 1033.17 1033.20 1033.19 1033.05 1032.88 1032.80 1032.72 1032.64 1032.39 1032.07 1031.60 1031.05 1030.45 1029.93 1029.33 1028.66
1023.86 1024.33 1025.04 1025.74 1026.49 1027.11 1027.66 1028.25 1028.75 1029.11 1029.39 1029.67 1029.86 1029.88 1029.73 1030.09 1030.63 1030.97 1031.45 1031.95 1032.33 1032.68 1032.90 1033.10 1033.29 1033.45 1033.59 1033.72 1033.55 1033.52 1033.53 1033.43 1033.39 1033.25 1033.14 1032.94 1032.60 1032.15 1031.60 1030.99 1030.35 1029.64 1028.87
1024.01 1024.65 1025.07 1025.77 1026.34 1026.87 1027.44 1027.92 1028.33 1028.75 1029.11 1029.36 1029.61 1029.44 1029.55 1029.97 1030.86 1031.46 1032.12 1032.65 1033.00 1033.24 1033.46 1033.63 1033.79 1033.81 1033.59 1033.73 1033.39 1033.83 1033.78 1033.78 1033.74 1033.66 1033.55 1033.32 1032.92 1032.45 1031.90 1031.30 1030.68 1029.96 1029.19
1024.12 1024.78 1025.34 1025.91 1026.39 1026.98 1027.41 1027.62 1028.10 1028.41 1028.62 1028.93 1029.38 1029.64 1029.81 1030.31 1031.00 1031.79 1032.61 1033.37 1033.79 1033.63 1033.70 1033.86 1033.69 1033.46 1033.45 1033.44 1033.61 1034.46 1033.93 1033.79 1033.78 1033.78 1033.69 1033.47 1033.05 1032.51 1031.99 1031.47 1030.86 1030.27 1029.57
1024.28 1024.87 1025.41 1025.88 1026.25 1026.76 1027.26 1027.45 1027.76 1028.07 1028.46 1028.86 1029.35 1029.89 1030.37 1030.93 1031.55 1032.31 1033.23 1033.84 1033.74 1034.10 1034.05 1033.92 1034.06 1033.69 1033.63 1033.78 1033.68 1033.45 1033.57 1033.40 1033.27 1033.51 1033.70 1033.54 1032.96 1032.41 1031.91 1031.42 1030.82 1030.15 1029.49
1024.28 1024.89 1025.43 1026.03 1026.38 1026.75 1027.21 1027.57 1027.90 1028.19 1028.59 1029.11 1029.68 1030.32 1030.97 1031.64 1032.28 1032.95 1033.80 1034.33 1034.43 1034.63 1034.55 1034.34 1034.00 1033.87 1033.67 1033.75 1033.49 1033.21 1032.99 1032.98 1032.91 1032.92 1033.05 1033.21 1032.76 1032.28 1031.81 1031.27 1030.70 1030.15 1029.56
1024.44 1025.05 1025.53 1025.98 1026.44 1026.94 1027.44 1027.83 1028.28 1028.68 1029.20 1029.78 1030.41 1030.99 1031.65 1032.32 1033.09 1033.87 1034.46 1034.55 1034.60 1034.73 1034.35 1034.27 1034.16 1033.87 1033.73 1033.67 1033.39 1033.11 1032.93 1032.92 1032.86 1032.70 1032.64 1032.55 1032.45 1032.11 1031.63 1031.16 1030.59 1030.03 1029.36
1024.64 1025.07 1025.57 1026.07 1026.73 1027.26 1027.79 1028.35 1028.96 1029.47 1030.07 1030.63 1031.19 1031.72 1032.26 1032.91 1033.63 1034.55 1034.70 1034.69 1034.69 1034.62 1034.40 1034.21 1033.96 1033.83 1033.66 1033.34 1033.05 1033.00 1032.91 1032.79 1032.65 1032.35 1032.30 1032.18 1032.06 1031.64 1031.34 1030.87 1030.36 1029.84 1029.14
Thickness
5415 5410 5405 5399 5393 5389 5386 5381 5377 5375 5375 5375 5374 5373 5373 5373 5373 5373 5373 5369 5368 5368 5374 5380 5383 5387 5393 5400 5407 5414 5423 5430 5450 5442 5446 5449 5455 5460 5465 5470 5477 5485 5493
5407 5403 5396 5389 5383 5378 5374 5369 5365 5365 5365 5364 5364 5362 5361 5361 5360 5361 5361 5357 5355 5358 5360 5368 5371 5375 5379 5383 5390 5397 5404 5412 5421 5422 5421 5428 5433 5435 5440 5448 5456 5463 5473
5400 5394 5388 5382 5373 5368 5362 5358 5356 5355 5354 5353 5353 5351 5350 5349 5349 5349 5347 5347 5349 5352 5353 5355 5358 5362 5363 5365 5369 5376 5383 5389 5394 5397 5397 5402 5410 5415 5422 5426 5431 5438 5448
5393 5387 5379 5373 5368 5361 5354 5349 5346 5345 5344 5343 5342 5341 5340 5339 5339 5339 5338 5338 5340 5341 5343 5346 5346 5349 5350 5352 5354 5358 5362 5368 5373 5377 5379 5383 5386 5390 5398 5404 5411 5413 5421
5386 5381 5374 5366 5360 5353 5346 5341 5338 5336 5334 5333 5333 5333 5332 5332 5332 5331 5331 5331 5332 5333 5333 5334 5336 5339 5340 5340 5342 5342 5346 5349 5352 5355 5358 5361 5366 5369 5372 5377 5384 5393 5397
5381 5374 5367 5359 5351 5345 5340 5336 5332 5329 5326 5325 5325 5325 5324 5325 5323 5323 5323 5323 5323 5325 5324 5324 5325 5326 5327 5329 5329 5330 5331 5331 5331 5334 5337 5340 5344 5345 5354 5359 5362 5369 5376
5375 5369 5361 5354 5347 5341 5336 5331 5327 5323 5320 5319 5319 5319 5319 5317 5315 5314 5314 5314 5314 5314 5314 5314 5316 5315 5315 5316 5316 5316 5319 5319 5317 5316 5320 5322 5327 5329 5337 5344 5347 5349 5346
5370 5364 5356 5349 5342 5336 5330 5325 5320 5317 5315 5314 5313 5312 5312 5310 5308 5307 5306 5305 5304 5304 5303 5303 5303 5303 5305 5305 5306 5305 5305 5305 5306 5305 5304 5306 5311 5316 5322 5328 5331 5334 5333
5365 5359 5352 5345 5338 5331 5325 5319 5315 5311 5309 5307 5305 5303 5302 5302 5300 5298 5298 5296 5295 5294 5293 5293 5292 5291 5291 5293 5294 5294 5294 5292 5291 5292 5292 5295 5298 5300 5307 5315 5318 5322 5315
5360 5353 5346 5340 5333 5325 5319 5314 5308 5304 5302 5298 5295 5292 5293 5291 5292 5289 5287 5286 5283 5283 5282 5282 5283 5281 5280 5280 5279 5279 5279 5276 5278 5281 5282 5284 5285 5287 5290 5294 5294 5296 5294
5354 5347 5340 5333 5327 5320 5314 5308 5303 5297 5291 5285 5281 5280 5280 5281 5280 5280 5277 5274 5270 5271 5270 5269 5269 5269 5267 5266 5265 5264 5262 5260 5261 5263 5265 5267 5270 5271 5273 5274 5274 5275 5274
5347 5340 5333 5326 5321 5314 5308 5302 5297 5289 5282 5275 5273 5271 5270 5269 5270 5269 5267 5265 5262 5258 5256 5256 5257 5256 5254 5251 5250 5249 5247 5246 5246 5246 5248 5248 5251 5253 5255 5257 5259 5259 5260
5340 5334 5327 5320 5315 5308 5302 5295 5289 5283 5277 5272 5269 5262 5259 5258 5256 5256 5255 5254 5251 5247 5245 5244 5243 5240 5237 5234 5234 5232 5231 5229 5228 5229 5228 5228 5228 5231 5235 5239 5242 5244 5246
5335 5327 5320 5313 5307 5301 5296 5290 5284 5277 5271 5268 5261 5252 5247 5246 5244 5245 5243 5240 5237 5233 5230 5227 5225 5223 5221 5218 5216 5215 5214 5213 5209 5206 5205 5209 5213 5214 5215 5217 5219 5223 5224
5330 5322 5314 5307 5301 5294 5287 5281 5277 5270 5266 5259 5250 5244 5235 5232 5233 5235 5232 5226 5222 5218 5214 5210 5205 5201 5199 5197 5196 5195 5195 5196 5195 5193 5191 5190 5192 5195 5195 5198 5199 5199 5201
5324 5316 5309 5301 5294 5287 5281 5273 5270 5264 5259 5253 5247 5240 5234 5231 5228 5225 5222 5218 5211 5206 5196 5186 5179 5175 5174 5173 5172 5171 5171 5171 5171 5173 5173 5173 5173 5174 5175 5177 5178 5178 5179
5320 5312 5304 5296 5288 5280 5273 5267 5257 5254 5250 5245 5239 5234 5228 5223 5218 5215 5210 5204 5197 5190 5179 5170 5163 5159 5160 5160 5156 5153 5149 5149 5149 5148 5146 5146 5147 5151 5152 5153 5154 5154 5156
5315 5308 5301 5292 5284 5276 5268 5260 5252 5246 5239 5231 5230 5226 5221 5215 5208 5203 5197 5188 5178 5173 5166 5158 5151 5148 5147 5143 5139 5134 5131 5129 5128 5125 5123 5121 5120 5123 5124 5125 5127 5128 5130
5309 5299 5293 5286 5279 5271 5261 5252 5245 5238 5230 5224 5220 5217 5212 5205 5198 5190 5183 5172 5162 5156 5153 5147 5140 5136 5132 5127 5120 5116 5112 5110 5107 5103 5102 5100 5097 5100 5100 5101 5101 5101 5104
5303 5296 5288 5280 5270 5262 5254 5245 5237 5230 5223 5215 5209 5204 5200 5192 5180 5170 5163 5155 5148 5143 5138 5133 5128 5122 5117 5111 5104 5099 5096 5092 5089 5087 5082 5079 5077 5077 5078 5078 5079 5079 5082
5293 5285 5279 5270 5263 5254 5246 5238 5231 5223 5215 5208 5202 5195 5190 5181 5169 5159 5151 5142 5135 5129 5122 5117 5111 5106 5101 5095 5090 5085 5080 5073 5071 5068 5064 5061 5057 5055 5056 5056 5056 5058 5059
5283 5275 5267 5260 5252 5243 5236 5230 5222 5216 5209 5201 5192 5184 5176 5167 5158 5148 5138 5128 5121 5115 5109 5103 5096 5090 5085 5080 5075 5069 5063 5057 5054 5050 5045 5042 5040 5037 5035 5033 5031 5031 5032
5273 5264 5257 5248 5242 5233 5225 5220 5213 5206 5198 5189 5180 5171 5161 5151 5142 5133 5122 5113 5106 5100 5093 5087 5081 5075 5069 5065 5060 5055 5049 5044 5039 5034 5028 5023 5020 5017 5012 5010 5010 5009 5011
5263 5255 5247 5237 5230 5224 5217 5209 5201 5193 5185 5175 5165 5155 5144 5134 5125 5115 5105 5098 5090 5084 5077 5071 5065 5059 5054 5049 5044 5039 5033 5027 5021 5015 5010 5005 5000 4998 4994 4992 4991 4989 4989
5252 5243 5236 5228 5221 5212 5204 5196 5186 5178 5168 5158 5147 5137 5127 5117 5107 5097 5089 5082 5075 5068 5062 5056 5050 5045 5039 5034 5028 5022 5016 5009 5003 4997 4992 4988 4984 4980 4976 4974 4972 4970 4970
5241 5233 5225 5217 5208 5199 5190 5180 5170 5161 5151 5141 5131 5121 5112 5101 5091 5081 5074 5066 5059 5053 5047 5041 5035 5029 5024 5018 5012 5005 4998 4992 4986 4981 4977 4972 4967 4964 4961 4958 4956 4954 4954